STARLINK-32592, 62035

Orbit data source: Space-Track

STARLINK-32592, 62035 is a payload satellite owned by SpaceX/Seattle (US) in LEO that was launched on Thu, 21 Nov 2024 UTC via an FALCON 9 launch vehicle from the Air Force Eastern Test Range (AFETR). Payload-class satellites include a variety of spacecraft equipped with specific instruments for various scientific and technological missions. These include communications satellites like Starlink; space stations such as the ISS; scientific satellites like the Hubble; Earth observation satellites from companies like Planet Labs, Umbra, and HawkEye 360; GPS; miniature CubeSats for education and research; and military/defense satellites.

Loading next visibility...
Identifier
62035, 2024-216D
Orbit
LEO
Country
Flag of USUS
Related business
Manufacturer
SpaceX/Seattle
Mission
Operational Commercial Communications
Bus & Motor
STARLINK V2M, Unknown motor
Mass
730 kg wet, ~700 kg dry
Launch date (UTC)
2024-11-21 (2 years ago)
Launch vehicle
FALCON 9
Launch site
Air Force Eastern Test Range (AFETR)
Object type
Payload
Rocket body
Debris
Shape & HBR
Box + 2 Pan, 17.7 m
Radar Cross Section
33.884 m², Large (>1 m²)

Expand to show TLE details & history
Last TLE update: 15 hours ago

TLE from 15 hours ago
0 STARLINK-32592
1 62035U 24216D   26171.36556529  .00016043  00000-0  59073-3 0  9990
2 62035  43.0034  43.8129 0001153 282.5008  77.5714 15.27609659 89507
Epoch: 2026-06-20T08:46Z
TLE epoch observation values (Epoch: 2026-06-20T08:46:24.841Z)
Latitude
-0.00005°
Longitude
3.62812°
Altitude
482.566 km
Speed
7.626 km/s
True Right ascension
02h 55m 15s
True Declination
0° 00' 00"
Sunlit
Object was in daylight at epoch
Visualization orbit readout
Latitude
Unknown
Longitude
Unknown
Altitude
Unknown
Speed
Unknown
Apparent Right ascension
Unknown
Apparent Declination
Unknown
Sunlit
N/A
Visualization observer readout
Local Sidereal Time
10:18:02
Azimuth
Unknown
Elevation
Unknown
Doppler factor
Unknown
Orbital elements
Apogee altitude
485.696 km
Perigee altitude
484.114 km
Semi-major axis
6,863.042 km
Eccentricity
0.00012
Inclination
43.0034°
RAAN
43.8129°
Arg. of periapsis
282.5008°
True anomaly
77.5843°
Mean anomaly
77.5714°
Eccentric anomaly
77.57785°
Mean motion
3.8174 °/min
Orbital period
94.3 mins
BSTAR
0.00059073
Loading maneuver chart data...
Computing Atmospheric mass density...
Loading historical data...
Loading historical data...
Loading historical data...
Loading historical data...
Loading historical data...
Loading historical data...
Loading historical data...

Documentation

Showing up to 5 results
|